Location: London
(51.5074°N, 0.1278°W)
Time: 21:13:19
(UTC+01:00)

N. Korean satellite - Visible Passes

Search period start: 26 September 2021 00:00
Search period end: 06 October 2021 00:00
Orbit: 449 x 498 km, 97.3° (Epoch: 26 September)

Date Brightness Start Highest point End Pass type
(mag) Time Alt. Az. Time Alt. Az. Time Alt. Az.
26 Sep 9.3 05:37:24 10° NE 05:40:15 22° E 05:43:07 10° SSE visible
27 Sep 10.0 05:10:51 10° ENE 05:12:11 12° E 05:13:33 10° ESE visible
28 Sep 7.3 06:14:30 10° NNE 06:18:02 57° E 06:21:35 10° S visible
29 Sep 8.9 05:46:57 10° NE 05:50:06 28° E 05:53:15 10° SSE visible
30 Sep 9.8 05:19:55 10° NE 05:22:03 15° E 05:24:11 10° SE visible
01 Oct 6.8 06:24:09 10° NNE 06:27:45 75° ESE 06:31:23 10° S visible
02 Oct 8.4 05:56:28 10° NNE 05:59:49 36° E 06:03:12 10° SSE visible
03 Oct 9.6 05:29:09 10° NE 05:31:47 19° E 05:34:25 10° SE visible
05 Oct 7.8 06:05:56 10° NNE 06:09:26 46° E 06:12:58 10° S visible
